Benton Harbor, MI

3:24 PM EDT on July 28, 2017 (GMT -0400)
Southwest Michigan Regional

Weather History for KBEH - December, 2012

Change the Weather History Date:

Saturday, December 8, 2012

  Actual Average Record
Temperature  
Mean Temperature 38 °F -  
Max Temperature 42 °F 39 °F 60 °F (1991)
Min Temperature 33 °F 25 °F -2 °F (2005)
Degree Days  
Heating Degree Days 28    
Moisture  
Dew Point 36 °F    
Average Humidity 90    
Maximum Humidity 100    
Minimum Humidity 75    
Precipitation  
Precipitation 0.07 in - - ()
Sea Level Pressure  
Sea Level Pressure 29.95 in    
Wind  
Wind Speed 3 mph (NE)    
Max Wind Speed 8 mph    
Max Gust Speed -    
Visibility 6 miles    
Events Rain    
Averages and records for this station are not official NWS values.
T = Trace of Precipitation, MM = Missing Value Source: NWS Daily Summary

Daily Weather History Graph

Daily Weather History Graph

Search for Another Location

Airport or City:

Trip Planner

Search our weather history database for the weather conditions in past years. The results will help you decide how hot, cold, wet, or windy it might be!

Date:

Astronomy

Dec. 08, 2012 Rise Set
Actual Time 8:01 AM EST 5:13 PM EST
Civil Twilight 7:30 AM EST 5:45 PM EST
Nautical Twilight 6:55 AM EST 6:20 PM EST
Astronomical Twilight 6:21 AM EST 6:54 PM EST
Moon 2:21 AM EST (12/8) 1:47 PM EST (12/8)
Length of Visible Light 10h 15m
Length of Day
9h 11m
Waning Crescent, 28% of the Moon is Illuminated
Dec 8
Waning Crescent
Dec 13
New
Dec 20
First Quarter
Dec 28
Full
Jan 4
Last Quarter

Hourly Weather History & Observations

Time (EST) Temp. Windchill Dew Point Humidity Pressure Visibility Wind Dir Wind Speed Gust Speed Precip Events Conditions
12:53 AM 41.0 °F - 39.0 °F 93% 29.86 in 3.0 mi Calm Calm - N/A   Overcast
1:53 AM 42.1 °F 40.2 °F 39.0 °F 89% 29.85 in 3.0 mi East 3.5 mph - N/A   Overcast
2:17 AM 42.8 °F - 39.2 °F 87% 29.83 in 3.0 mi Calm Calm - N/A   Overcast
2:53 AM 42.1 °F - 39.9 °F 92% 29.86 in 3.0 mi Calm Calm - N/A   Overcast
3:11 AM 41.0 °F - 39.2 °F 93% 29.85 in 2.5 mi Calm Calm - N/A   Overcast
3:22 AM 41.0 °F - 39.2 °F 93% 29.85 in 2.5 mi Calm Calm - 0.00 in Rain Light Rain
3:42 AM 41.0 °F - 41.0 °F 100% 29.85 in 1.5 mi Calm Calm - 0.03 in Rain Light Rain
3:53 AM 41.0 °F - 41.0 °F 100% 29.85 in 1.8 mi Calm Calm - 0.04 in Rain Light Rain
4:00 AM 41.0 °F - 41.0 °F 100% 29.84 in 2.0 mi Calm Calm - 0.00 in Rain Light Rain
4:08 AM 41.0 °F - 41.0 °F 100% 29.84 in 1.8 mi Calm Calm - 0.01 in Rain Light Rain
4:20 AM 42.8 °F - 41.0 °F 93% 29.83 in 2.0 mi Calm Calm - 0.02 in Rain Light Rain
4:33 AM 42.8 °F - 41.0 °F 93% 29.83 in 1.8 mi Calm Calm - 0.02 in Rain Light Rain
4:53 AM 41.0 °F 39.0 °F 41.0 °F 100% 29.83 in 1.8 mi ENE 3.5 mph - 0.02 in Rain Light Rain
5:32 AM 41.0 °F - 41.0 °F 100% 29.84 in 2.0 mi Calm Calm - 0.01 in   Overcast
6:19 AM 41.0 °F - 41.0 °F 100% 29.85 in 2.0 mi Calm Calm - 0.01 in Rain Light Rain
6:27 AM 41.0 °F - 41.0 °F 100% 29.85 in 1.8 mi Calm Calm - 0.01 in   Overcast
6:53 AM 41.0 °F - 41.0 °F 100% 29.87 in 1.8 mi Calm Calm - 0.01 in   Overcast
7:11 AM 41.0 °F - 41.0 °F 100% 29.86 in 1.5 mi Calm Calm - N/A   Overcast
7:19 AM 41.0 °F - 39.2 °F 93% 29.87 in 1.8 mi Calm Calm - N/A   Overcast
7:30 AM 41.0 °F 39.0 °F 39.2 °F 93% 29.87 in 2.0 mi NNE 3.5 mph - N/A   Overcast
7:50 AM 41.0 °F 38.0 °F 39.2 °F 93% 29.87 in 2.5 mi ENE 4.6 mph - 0.00 in   Overcast
7:53 AM 41.0 °F 39.0 °F 39.9 °F 96% 29.89 in 2.5 mi NE 3.5 mph - 0.00 in   Overcast
8:13 AM 39.2 °F 35.0 °F 39.2 °F 100% 29.88 in 5.0 mi Variable 5.8 mph - N/A   Overcast
8:53 AM 37.0 °F 33.3 °F 36.0 °F 96% 29.92 in 10.0 mi NNE 4.6 mph - N/A   Overcast
9:05 AM 37.4 °F 32.1 °F 35.6 °F 93% 29.91 in 10.0 mi NE 6.9 mph - N/A   Overcast
9:27 AM 37.4 °F 32.8 °F 35.6 °F 93% 29.92 in 10.0 mi Variable 5.8 mph - N/A   Overcast
9:53 AM 37.0 °F 31.6 °F 35.1 °F 93% 29.95 in 10.0 mi NE 6.9 mph - N/A   Overcast
10:53 AM 37.0 °F 31.0 °F 35.1 °F 93% 29.98 in 10.0 mi NE 8.1 mph - N/A   Overcast
11:39 AM 37.4 °F 32.8 °F 35.6 °F 93% 29.97 in 10.0 mi NE 5.8 mph - N/A   Overcast
11:53 AM 37.0 °F 32.4 °F 34.0 °F 89% 29.99 in 10.0 mi ENE 5.8 mph - N/A   Overcast
12:53 PM 37.9 °F 32.7 °F 34.0 °F 86% 29.99 in 10.0 mi North 6.9 mph - N/A   Overcast
1:53 PM 37.9 °F 32.7 °F 33.1 °F 83% 30.00 in 10.0 mi NE 6.9 mph - N/A   Overcast
2:05 PM 39.2 °F 33.6 °F 33.8 °F 81% 29.99 in 10.0 mi NE 8.1 mph - N/A   Overcast
2:39 PM 39.2 °F 34.2 °F 33.8 °F 81% 29.99 in 10.0 mi NE 6.9 mph - N/A   Overcast
2:53 PM 39.0 °F 34.8 °F 33.1 °F 79% 30.01 in 10.0 mi Variable 5.8 mph - N/A   Overcast
3:36 PM 39.2 °F 35.9 °F 33.8 °F 81% 30.01 in 10.0 mi Variable 4.6 mph - N/A   Mostly Cloudy
3:53 PM 39.0 °F 35.7 °F 32.0 °F 76% 30.04 in 10.0 mi Variable 4.6 mph - N/A   Overcast
5:53 PM 37.0 °F 33.3 °F 30.0 °F 76% 30.08 in 10.0 mi NE 4.6 mph - N/A   Overcast
6:37 PM 35.6 °F 30.7 °F 28.4 °F 75% 30.08 in 10.0 mi NE 5.8 mph - N/A   Scattered Clouds
6:53 PM 35.1 °F 32.2 °F 28.9 °F 78% 30.10 in 10.0 mi NNE 3.5 mph - N/A   Clear
7:13 PM 35.6 °F 30.7 °F 30.2 °F 81% 30.10 in 10.0 mi NE 5.8 mph - N/A   Mostly Cloudy
7:53 PM 34.0 °F 28.8 °F 28.9 °F 82% 30.12 in 10.0 mi NE 5.8 mph - N/A   Scattered Clouds
8:53 PM 33.1 °F 26.9 °F 28.0 °F 82% 30.14 in 10.0 mi East 6.9 mph - N/A   Clear
9:35 PM 33.8 °F 27.0 °F 28.4 °F 81% 30.12 in 10.0 mi East 8.1 mph - N/A   Mostly Cloudy
9:53 PM 34.0 °F 28.8 °F 28.0 °F 79% 30.15 in 10.0 mi ENE 5.8 mph - N/A   Mostly Cloudy
10:07 PM 33.8 °F 27.0 °F 28.4 °F 81% 30.12 in 10.0 mi ENE 8.1 mph - N/A   Scattered Clouds
10:53 PM 34.0 °F 27.2 °F 28.0 °F 79% 30.14 in 10.0 mi East 8.1 mph - N/A   Partly Cloudy
11:53 PM 34.0 °F 27.2 °F 28.0 °F 79% 30.14 in 10.0 mi East 8.1 mph - N/A   Overcast